KC9NBZ Weather Reports


Display with metric or nautical units.
time (UTC)temp
F
wind
direction
speed
MPH
gust
MPH
rain 1hr
in
rain 24hr
in
rain mn
in
humidity
%
barometer
mb
20260503201541 65 279 9.0 20.0 0.00 0.00 0.00 48 1004.8
20260503200521 65 263 10.0 16.0 0.00 0.00 0.00 48 1005.0
20260503195522 65 262 10.0 16.0 0.00 0.00 0.00 48 1005.1
20260503194518 65 273 9.0 15.0 0.00 0.00 0.00 49 1005.2
20260503193519 64 266 9.0 14.0 0.00 0.00 0.00 49 1005.4
20260503192522 64 257 10.0 17.0 0.00 0.00 0.00 48 1005.6
20260503191543 63 269 11.0 18.0 0.00 0.00 0.00 49 1005.7
20260503190521 63 274 12.0 21.0 0.00 0.00 0.00 49 1005.7
20260503185540 63 266 9.0 16.0 0.00 0.00 0.00 49 1005.7
20260503184519 63 260 12.0 20.0 0.00 0.00 0.00 48 1005.8
20260503183601 63 265 11.0 19.0 0.00 0.00 0.00 48 1005.9
20260503182519 62 264 12.0 26.0 0.00 0.00 0.00 50 1006.0
20260503181519 62 262 9.0 16.0 0.00 0.00 0.00 50 1006.1
20260503180601 61 261 8.0 14.0 0.00 0.00 0.00 53 1006.1
20260503175520 61 260 9.0 19.0 0.00 0.00 0.00 52 1006.3
20260503174524 61 264 10.0 17.0 0.00 0.00 0.00 53 1006.5
20260503173520 61 259 11.0 17.0 0.00 0.00 0.00 52 1006.6
20260503172521 60 263 10.0 16.0 0.00 0.00 0.00 51 1006.7
20260503171521 61 261 11.0 19.0 0.00 0.00 0.00 50 1006.9
20260503170520 61 265 8.0 15.0 0.00 0.00 0.00 53 1007.0
20260503150520 55 266 8.0 18.0 0.00 0.00 0.00 68 1008.6
20260503130539 51 274 8.0 14.0 0.00 0.00 0.00 66 1010.1
20260503110521 49 268 5.0 9.0 0.00 0.00 0.00 55 1010.1
20260503081523 48 282 4.0 8.0 0.00 0.00 0.00 54 1011.4
20260503080521 48 276 3.0 7.0 0.00 0.00 0.00 54 1011.4
20260503072519 48 273 3.0 6.0 0.00 0.00 0.00 53 1011.6
20260503071520 48 282 4.0 8.0 0.00 0.00 0.00 53 1011.6
20260503070520 48 279 4.0 7.0 0.00 0.00 0.00 52 1011.7
20260503054520 49 273 4.0 8.0 0.00 0.00 0.00 49 1012.3
20260503053521 49 272 4.0 8.0 0.00 0.00 0.00 49 1012.3
20260503052519 49 270 4.0 7.0 0.00 0.00 0.00 49 1012.4
20260503051522 49 274 4.0 6.0 0.00 0.00 0.00 49 1012.5
20260503050525 50 265 3.0 6.0 0.00 0.00 0.00 48 1012.6
20260503045521 50 272 4.0 6.0 0.00 0.00 0.00 48 1012.6
20260503044539 50 269 4.0 6.0 0.00 0.00 0.00 48 1012.7
20260503043519 50 269 4.0 6.0 0.00 0.00 0.00 48 1012.7
20260503042519 50 269 4.0 7.0 0.00 0.00 0.00 48 1012.8
20260503041522 50 268 3.0 7.0 0.00 0.00 0.00 48 1012.9
20260503040522 50 270 3.0 7.0 0.00 0.00 0.00 48 1013.0
20260503035519 50 277 3.0 5.0 0.00 0.00 0.00 48 1013.1
20260503034520 50 269 3.0 7.0 0.00 0.00 0.00 48 1013.2
20260503033541 49 276 3.0 6.0 0.00 0.00 0.00 49 1013.2
20260503032521 49 272 2.0 5.0 0.00 0.00 0.00 49 1013.3
20260503031521 49 279 3.0 5.0 0.00 0.00 0.00 49 1013.4
20260503030520 46 288 3.0 5.0 0.00 0.00 0.00 55 1013.4
20260503025522 43 304 2.0 5.0 0.00 0.00 0.00 65 1013.4
20260503024520 42 14 0.0 2.0 0.00 0.00 0.00 68 1013.4
20260503023522 43 345 0.0 1.0 0.00 0.00 0.00 67 1013.5
20260503022520 44 320 1.0 2.0 0.00 0.00 0.00 66 1013.5
20260503021521 44 313 0.0 2.0 0.00 0.00 0.00 64 1013.4
20260503020521 45 305 0.0 1.0 0.00 0.00 0.00 60 1013.4
20260503015518 46 328 0.0 1.0 0.00 0.00 0.00 59 1013.4
20260503014518 47 237 0.0 2.0 0.00 0.00 0.00 57 1013.3
20260503013522 48 313 1.0 3.0 0.00 0.00 0.00 57 1013.3
20260503012522 50 316 2.0 4.0 0.00 0.00 0.00 54 1013.3
20260503011519 51 302 2.0 3.0 0.00 0.00 0.00 51 1013.2
20260503010519 52 302 2.0 3.0 0.00 0.00 0.00 49 1013.2
20260503005519 53 290 2.0 5.0 0.00 0.00 0.00 46 1013.3
20260503004519 54 288 5.0 8.0 0.00 0.00 0.00 44 1013.3
20260503003520 55 287 4.0 9.0 0.00 0.00 0.00 44 1013.3
20260503002519 56 286 6.0 11.0 0.00 0.00 0.00 42 1013.4
20260503001522 57 278 6.0 11.0 0.00 0.00 0.00 40 1013.4
20260503000542 57 276 6.0 11.0 0.00 0.00 0.00 39 1013.6
20260502235521 58 274 7.0 14.0 0.00 0.00 0.00 40 1013.7
20260502234541 57 289 5.0 11.0 0.00 0.00 0.00 40 1013.9
20260502233521 58 280 5.0 10.0 0.00 0.00 0.00 39 1013.9
20260502232521 58 278 7.0 13.0 0.00 0.00 0.00 39 1013.9
20260502231521 58 283 7.0 13.0 0.00 0.00 0.00 38 1014.0
20260502230522 58 295 7.0 14.0 0.00 0.00 0.00 38 1014.1
20260502225544 58 274 7.0 14.0 0.00 0.00 0.00 39 1014.1
20260502224523 57 278 7.0 13.0 0.00 0.00 0.00 39 1014.2
20260502223520 58 276 10.0 17.0 0.00 0.00 0.00 38 1014.3
20260502222519 57 279 8.0 14.0 0.00 0.00 0.00 38 1014.4
20260502221519 57 272 8.0 12.0 0.00 0.00 0.00 38 1014.4
20260502220522 58 290 8.0 15.0 0.00 0.00 0.00 38 1014.6
20260502215524 57 283 7.0 13.0 0.00 0.00 0.00 39 1014.7
20260502214540 57 301 5.0 10.0 0.00 0.00 0.00 40 1014.7
20260502213519 57 281 8.0 14.0 0.00 0.00 0.00 39 1014.8
20260502212520 56 277 6.0 12.0 0.00 0.00 0.00 39 1014.8
20260502211520 57 277 8.0 13.0 0.00 0.00 0.00 38 1014.9
20260502210522 57 291 8.0 16.0 0.00 0.00 0.00 39 1015.0
20260502205520 57 297 7.0 14.0 0.00 0.00 0.00 38 1015.1
20260502204521 56 292 8.0 15.0 0.00 0.00 0.00 38 1015.2
20260502203541 56 307 6.0 12.0 0.00 0.00 0.00 38 1015.4
20260502202522 56 279 9.0 16.0 0.00 0.00 0.00 39 1015.6